Location: Newark
(50.4348°N, 30.5552°E)
Time: 14:48:15
(UTC+00:00)

Altair - Pass Details

Date: 27 January 2020
Orbit: 1502 x 1682 km, 47.2° (Epoch: 24 February)

Event Time Altitude Azimuth Distance (km) Brightness Sun altitude
Rises 07:01:07 0° 239° (WSW) 4,880 10.0 9.4°
Reaches altitude 10° 07:04:16 10° 236° (SW) 3,910 9.6 9.8°
Maximum altitude 07:14:08 63° 159° (SSE) 1,849 8.6 10.9°
Drops below altitude 10° 07:24:05 10° 82° (E) 3,939 10.2 11.9°
Sets 07:27:16 0° 80° (E) 4,918 10.6 12.2°
